Flag for Lebanon Weather past 2 weeks in Sidon, Lebanon

Now
66 °F

Passing clouds.


Feels Like: 66 °F
Forecast: 61 / 76 °F
Wind: 9 mph from Southwest

Location: Beirut Airport


UV Index: 7 (High)

Visibility: 5 mi


Pressure: 29.92 "Hg

Humidity: 78%

Dew point: 59 °F

Location of SidonLocation

Historic Weather in Sidon

°F

Sidon temperature yesterday

Maximum temperature yesterday: 72 °F (at 12:00 PM)
Minimum temperature yesterday: 63 °F (at 6:00 AM)
Average temperature yesterday: 68 °F

Past Weeks' High & Low Weather Summary

 TemperatureHumidityPressure
High84 °F (Apr 6, 2:00 PM)88% (Apr 13, 12:00 AM)30.18 "Hg (Apr 13, 12:00 AM)
Low57 °F (Apr 5, 5:00 AM)18% (Apr 6, 2:00 PM)29.80 "Hg (Apr 17, 6:00 AM)
Average66 °F64%30.01 "Hg
* Reported Midnight between Apr 2 and Apr 3 — Midnight between Apr 17 and Apr 18, Sidon, Weather by CustomWeather, © 2014

Note: Actual official high and low records may vary slightly from our data, if they occured in-between our weather recording intervals... More about our weather records

Advertising

Historic Weather Conditions — Data for Previous 24 hours

 ConditionsComfort  
Time TempWeatherWind HumidityBarometerVisibility
12:00 AM
Apr 18
66 °FPassing clouds.9 mph78%29.92 "Hg4 mi
11:00 PM
Apr 17
66 °FPassing clouds.10 mph83%29.92 "Hg4 mi
10:00 PM66 °FPassing clouds.9 mph83%29.89 "Hg4 mi
9:00 PM66 °FPassing clouds.12 mph88%29.89 "Hg4 mi
8:00 PM66 °FScattered clouds.9 mph88%29.89 "Hg4 mi
7:00 PM68 °FScattered clouds.10 mph83%29.89 "Hg4 mi
6:00 PM70 °FScattered clouds.10 mph78%29.89 "Hg4 mi
5:00 PM70 °FScattered clouds.12 mph78%29.86 "Hg4 mi
4:00 PM70 °FScattered clouds.12 mph78%29.86 "Hg4 mi
3:00 PM72 °FScattered clouds.14 mph73%29.86 "Hg4 mi
2:00 PM72 °FScattered clouds.16 mph73%29.86 "Hg4 mi
1:00 PM72 °FScattered clouds.18 mph73%29.86 "Hg4 mi
12:00 PM72 °FScattered clouds.14 mph78%29.86 "Hg4 mi
11:00 AM70 °FScattered clouds.14 mph78%29.86 "Hg4 mi
10:00 AM66 °FFog.12 mph88%29.86 "Hg3 mi
9:00 AM68 °FScattered clouds.9 mph73%29.83 "Hg5 mi
8:00 AM66 °FScattered clouds.6 mph68%29.83 "Hg5 mi
7:00 AM66 °FPartly cloudy.3 mph64%29.83 "Hg4 mi
6:00 AM63 °FPassing clouds.1 mph68%29.80 "Hg5 mi
5:00 AM64 °FPassing clouds.2 mph64%29.83 "Hg5 mi
4:00 AM64 °FPassing clouds.6 mph68%29.83 "Hg5 mi
3:00 AM64 °FPassing clouds.6 mph83%29.83 "Hg5 mi
2:00 AM66 °FPassing clouds.2 mph64%29.83 "Hg5 mi
1:00 AM68 °FPassing clouds.No wind69%29.83 "Hg5 mi
Weather by CustomWeather, © 2014

See weather overview